Weather History for St. Joseph, MO

Change the Weather History Date:

Friday, January 18, 2013

  Actual Average Record
Temperature  
Mean Temperature 44 °F 27 °F  
Max Temperature 59 °F 37 °F 69 °F (1951)
Min Temperature 28 °F 17 °F -15 °F (1940)
Degree Days  
Heating Degree Days 21 38  
Month to date heating degree days 629 687  
Since 1 July heating degree days 2725 2900  
Cooling Degree Days 0 0  
Month to date cooling degree days 0 0  
Year to date cooling degree days 0 0  
Moisture  
Dew Point 28 °F    
Average Humidity 59    
Maximum Humidity 85    
Minimum Humidity 33    
Precipitation  
Precipitation 0.00 in 0.01 in 0.82 in (1979)
Month to date precipitation 0.30 0.30  
Year to date precipitation 0.30 0.30  
Sea Level Pressure  
Sea Level Pressure 30.16 in    
Wind  
Wind Speed 14 mph (SSW)    
Max Wind Speed 32 mph    
Max Gust Speed 43 mph    
Visibility 10 miles    
Events      
T = Trace of Precipitation, MM = Missing Value Source: NWS Daily Summary

Daily Weather History Graph

Daily Weather History Graph

Search for Another Location

Airport:

Trip Planner

Search our weather history database for the weather conditions in past years. The results will help you decide how hot, cold, wet, or windy it might be!

Date:

Astronomy

Jan. 18, 2013 Rise Set
Actual Time 7:37 AM CST 5:23 PM CST
Civil Twilight 7:08 AM CST 5:52 PM CST
Nautical Twilight 6:35 AM CST 6:25 PM CST
Astronomical Twilight 6:02 AM CST 6:57 PM CST
Moon 11:17 AM CST (1/18) 12:13 AM CST (1/18)
Length of Visible Light 10h 44m
Length of Day
9h 45m
Waxing Crescent, 47% of the Moon is Illuminated
Jan 18
Waxing Crescent
Jan 18
First Quarter
Jan 26
Full
Feb 3
Last Quarter
Feb 10
New

Hourly Weather History & Observations

Time (CST) Temp. Windchill Dew Point Humidity Pressure Visibility Wind Dir Wind Speed Gust Speed Precip Events Conditions
12:53 AM 30.0 °F 25.2 °F 25.0 °F 82% 30.39 in 10.0 mi SSE 4.6 mph - N/A   Clear
1:53 AM 30.0 °F 23.2 °F 24.1 °F 79% 30.38 in 10.0 mi South 6.9 mph - N/A   Clear
2:53 AM 32.0 °F 24.2 °F 26.1 °F 79% 30.37 in 10.0 mi SSW 9.2 mph - N/A   Clear
3:53 AM 33.1 °F 24.9 °F 26.1 °F 75% 30.35 in 10.0 mi South 10.4 mph - N/A   Clear
4:53 AM 33.1 °F 25.5 °F 26.1 °F 75% 30.32 in 10.0 mi South 9.2 mph - N/A   Clear
5:53 AM 34.0 °F 25.5 °F 26.1 °F 73% 30.30 in 10.0 mi South 11.5 mph - N/A   Clear
6:53 AM 34.0 °F 24.6 °F 26.1 °F 73% 30.29 in 10.0 mi SSW 13.8 mph - N/A   Clear
7:53 AM 35.1 °F 26.4 °F 27.0 °F 72% 30.27 in 10.0 mi South 12.7 mph 21.9 mph N/A   Clear
8:53 AM 39.0 °F 30.6 °F 28.0 °F 65% 30.24 in 10.0 mi South 15.0 mph - N/A   Clear
9:53 AM 44.1 °F 37.1 °F 28.9 °F 55% 30.23 in 10.0 mi SSW 15.0 mph - N/A   Clear
10:53 AM 48.0 °F - 30.0 °F 50% 30.19 in 10.0 mi SSW 20.7 mph 31.1 mph N/A   Clear
11:53 AM 53.1 °F - 28.9 °F 40% 30.13 in 10.0 mi SSW 24.2 mph 32.2 mph N/A   Clear
12:53 PM 55.0 °F - 30.0 °F 38% 30.07 in 10.0 mi SSW 27.6 mph 39.1 mph N/A   Clear
1:53 PM 57.0 °F - 30.9 °F 37% 30.04 in 10.0 mi SW 20.7 mph 33.4 mph N/A   Clear
2:53 PM 59.0 °F - 30.9 °F 35% 30.01 in 10.0 mi SW 20.7 mph 32.2 mph N/A   Clear
3:53 PM 59.0 °F - 30.0 °F 33% 30.01 in 10.0 mi SW 17.3 mph 31.1 mph N/A   Clear
4:53 PM 55.9 °F - 30.0 °F 37% 30.02 in 10.0 mi SW 23.0 mph 29.9 mph N/A   Clear
5:53 PM 50.0 °F - 30.0 °F 46% 30.04 in 10.0 mi SW 9.2 mph - N/A   Clear
6:53 PM 48.0 °F - 30.0 °F 50% 30.05 in 10.0 mi SSW 11.5 mph - N/A   Clear
7:53 PM 45.0 °F 40.6 °F 28.9 °F 53% 30.05 in 10.0 mi South 8.1 mph - N/A   Clear
8:53 PM 45.0 °F 39.3 °F 30.0 °F 56% 30.03 in 10.0 mi SSW 11.5 mph - N/A   Clear
9:53 PM 46.0 °F 41.0 °F 30.0 °F 54% 30.03 in 10.0 mi SW 10.4 mph - N/A   Clear
10:53 PM 46.0 °F 40.6 °F 30.0 °F 54% 30.01 in 10.0 mi SSW 11.5 mph - N/A   Clear
11:53 PM 44.1 °F 38.1 °F 30.0 °F 58% 29.99 in 10.0 mi SSW 11.5 mph - N/A   Clear